Location: T�bingen+AIT
(48.5342°N, 9.0700°E)
Time: 20:27:06
(UTC+02:00)

Cosmos 1656 Rocket - Pass Details

Date: 14 September 2017
Orbit: 794 x 848 km, 71.1° (Epoch: 20 September)

Event Time Altitude Azimuth Distance (km) Brightness Sun altitude
Rises 21:20:41 0° 334° (NNW) 3,421 7.7 -17.1°
Reaches altitude 10° 21:23:13 10° 339° (NNW) 2,480 6.8 -17.5°
Maximum altitude 21:28:48 53° 56° (ENE) 1,027 3.9 -18.3°
Enters shadow 21:31:03 33° 115° (ESE) 1,372 4.2 -18.6°
